Content
SEND FEEDBACK

Daily
Averages
Monthly
Summary
Sweden

OREBRO, SWEDEN


Home > Europe > Sweden
Elevation: 31 meters     Latitude: 59 15N     Longitude: 015 13E

WEATHER
 
SELECT A DAY
Number of Records: 68,801;   Date Range: 1/10/97 - 10/23/14
 
SHARE

PRINT THIS DATA

[ ← Previous Day ]
WEATHER ALMANAC - 3 JANUARY, 2013
[ Next Day → ]
[ °F ]   °C
Weather ElementAverageHighLow
Temperature2.3 °C4 °C (1:50 pm)0 °C (12:50 am)
Dewpoint1.2 °C3 °C (12:50 pm)-1 °C (12:50 am)
Humidity93 %100 % (1:20 am)81 % (7:50 pm)
Barometer1003.4 hPa1008.1 hPa (11:50 pm)999 hPa (12:20 pm)
Wind Speed13.2 km/h24.1 km/h (11:50 pm)
Wind Gust25.9 km/h (8:20 pm)
Weather ElementAverage
Visibility9.3 km
Wind DirectionSSW (212.4 °)

Weather ElementTotal
Precipitation---
Heating Degree Days16.3 (Base 18.3)
Averaged from 46 records on 3 January, 2013
WEATHER CONDITIONS BREAKOUT
WIND DIRECTION BREAKOUT
WEATHER BY HOUR - 3 JANUARY, 2013
[ °F ]   °C
Local TimeTemperatureDewpointHumidityBarometerVisibilityWind DirectionWind SpeedGust SpeedPrecipitationEventsConditions
12:50 AM0 °C-1 °C93 %1007.1 hPa10 kmWSW (240°)18.5 km/hMostly Cloudy
1:20 AM0 °C0 °C100 %1007.1 hPa6.9 kmWSW (250°)18.5 km/hOvercast
1:50 AM0 °C0 °C100 %1007.1 hPa10 kmSW (230°)13 km/hOvercast
2:20 AM0 °C0 °C100 %1007.1 hPa10 kmSW (230°)16.7 km/hOvercast
2:50 AM0 °C0 °C100 %1007.1 hPa10 kmSW (230°)16.7 km/hOvercast
3:20 AM1 °C0 °C93 %1006.1 hPa10 kmSW (230°)16.7 km/hOvercast
3:50 AM1 °C0 °C93 %1006.1 hPa10 kmSW (220°)20.4 km/hOvercast
4:20 AM1 °C0 °C93 %1006.1 hPa10 kmSW (230°)20.4 km/hOvercast
4:50 AM1 °C0 °C93 %1005.1 hPa10 kmSW (220°)16.7 km/hOvercast
5:20 AM1 °C0 °C93 %1005.1 hPa10 kmSW (220°)14.8 km/hOvercast
5:50 AM1 °C0 °C93 %1005.1 hPa10 kmSouth (190°)13 km/hOvercast
6:20 AM1 °C0 °C93 %1004.1 hPa10 kmSSW (200°)9.3 km/hOvercast
6:50 AM1 °C1 °C100 %1003 hPa8 kmSouth (190°)11.1 km/hOvercast
7:20 AM2 °C1 °C93 %1003 hPa10 kmSouth (190°)13 km/hLight Drizzle
7:50 AM2 °C1 °C93 %1003 hPa8 kmSSW (200°)14.8 km/hDrizzle
8:20 AM1 °C1 °C100 %1002 hPa10 kmSSW (200°)14.8 km/hRainLight Rain
8:50 AM1 °C1 °C100 %1002 hPa10 kmSSW (210°)14.8 km/hRainLight Rain
9:20 AM2 °C1 °C93 %1001 hPa10 kmSSW (200°)13 km/hMostly Cloudy
9:50 AM1 °C1 °C100 %1001 hPa3.1 kmSSW (200°)13 km/hMostly Cloudy
10:20 AM2 °C1 °C93 %1000 hPa4 kmSouth (190°)14.8 km/hOvercast
10:50 AM2 °C2 °C100 %1000 hPaSSW (210°)18.5 km/hOvercast
11:20 AM2 °C2 °C100 %1000 hPa2.6 kmSSW (210°)11.1 km/hOvercast
11:50 AM2 °C2 °C100 %1000 hPaSW (220°)13 km/hOvercast
12:20 PM3 °C2 °C93 %999 hPaSW (220°)14.8 km/hOvercast
12:50 PM3 °C3 °C100 %999 hPa10 kmWSW (240°)13 km/hOvercast
1:20 PM3 °C3 °C100 %999 hPa10 kmWSW (240°)13 km/hOvercast
1:50 PM4 °C3 °C93 %999 hPa10 kmWSW (240°)11.1 km/hOvercast
2:20 PM4 °C3 °C93 %999 hPa10 kmSW (230°)9.3 km/hOvercast
2:50 PM4 °C3 °C93 %1000 hPa10 kmSW (220°)7.4 km/hOvercast
3:50 PM4 °C3 °C93 %1000 hPa10 kmWSW (240°)13 km/hOvercast
4:20 PM4 °C3 °C93 %1001 hPa10 kmWSW (240°)13 km/hOvercast
4:50 PM3 °C2 °C93 %1001 hPa10 kmWSW (240°)11.1 km/hScattered Clouds
5:20 PM3 °C2 °C93 %1002 hPa10 kmWSW (240°)7.4 km/hScattered Clouds
5:50 PM3 °C2 °C93 %1002 hPa10 kmWSW (240°)11.1 km/h
6:20 PM3 °C2 °C93 %1003 hPa10 kmSW (220°)5.6 km/hPartly Cloudy
6:50 PM3 °C2 °C93 %1003 hPa10 kmVariable5.6 km/hPartly Cloudy
7:20 PM3 °C1 °C87 %1004.1 hPaVariable5.6 km/hClear
7:50 PM4 °C1 °C81 %1004.1 hPaWest (260°)11.1 km/hClear
8:20 PM4 °C1 °C81 %1005.1 hPaWSW (240°)7.4 km/h25.9 km/hClear
8:50 PM3 °C1 °C87 %1006.1 hPaVariable3.7 km/hClear
9:20 PM4 °C1 °C81 %1005.1 hPaWNW (290°)14.8 km/hClear
9:50 PM3 °C1 °C87 %1006.1 hPa10 kmWSW (240°)7.4 km/h
10:20 PM3 °C1 °C87 %1007.1 hPa10 kmSW (220°)13 km/h
10:50 PM4 °C1 °C81 %1007.1 hPa10 kmWest (270°)18.5 km/h
11:20 PM3 °C1 °C87 %1007.1 hPa10 kmWest (260°)20.4 km/h
11:50 PM4 °C1 °C81 %1008.1 hPa10 kmWest (270°)24.1 km/h
Hourly data recorded from ESOE, located 0 kilometers away from Orebro, Sweden







STORIES FROM OUR PARTNERS